Regional Weather Roundup
Issued by NWS

Home | Current Version | Previous Version | Text Only | Print | Product List | Glossary On
Versions: 1 2 3 4 5 6 7 8 9 10 11 12 13 14 15 16 17 18 19 20 21 22 23 24 25 26 27 28 29 30 31 32 33 34 35 36 37 38 39 40 41 42 43 44 45 46 47 48 49 50
000
ASUS44 KMEG 210310
RWRTN
TENNESSEE HOURLY STATE WEATHER ROUNDUP
NATIONAL WEATHER SERVICE MEMPHIS TN
900 PM CST MON NOV 20 2017

TNZ002-004-019-021-049-052-054-088>092-210400-
WEST TENNESSEE

CITY           SKY/WX    TMP DP  RH WIND       PRES   REMARKS
MEMPHIS INTL   CLEAR     41  28  60 S6        30.06F
NWS MEMPHIS      N/A     38 N/A N/A MISG        N/A
JACKSON        CLEAR     39  28  64 S3        30.07F
DYERSBURG      CLEAR     42  27  55 S3        30.06S
SOMERVILLE     CLEAR     41  28  60 S5        30.05S
COVINGTON      CLEAR     37  27  65 CALM      30.07R
UNION CITY     CLEAR     39  27  60 S8        30.04F WCI  34
BOLIVAR        CLEAR     34  28  80 CALM      30.07S
PARIS          CLEAR     39  25  56 S7        30.05S WCI  34
HUNTINGDON     CLEAR     39  27  60 S5        30.05S
LEXINGTON      CLEAR     37  28  70 CALM      30.08S
SELMER         CLEAR     43  27  52 S6        30.07F
SAVANNAH       CLEAR     32  30  93 CALM      30.09S
$$

TNZ008-025-027-028-033-062-065-066-210400-
NORTH MIDDLE TENNESSEE

CITY           SKY/WX    TMP DP  RH WIND       PRES   REMARKS
NASHVILLE      PTCLDY    38  28  67 S5        30.10S WCI  34
PORTLAND       CLEAR     37  27  65 S6        30.07R WCI  33
CLARKSVILLE    CLEAR     40  24  53 S3        30.07S
SMYRNA         CLOUDY    33  29  85 SE5       30.11S WCI  29
COOKEVILLE     CLEAR     41  27  56 S5        30.10S
GALLATIN       CLEAR     34  28  80 CALM      30.11S
CROSSVILLE     CLOUDY    38  24  57 S3        30.11F
$$

TNZ061-075-076-078-094-096-097-210400-
SOUTH MIDDLE TENNESSEE

CITY           SKY/WX    TMP DP  RH WIND       PRES   REMARKS
FAYETTEVILLE   CLEAR     45  30  57 S8        30.11S
TULLAHOMA      CLEAR     43  27  52 S5        30.10S
WINCHESTER     CLEAR     37  28  70 CALM      30.12S
MCMINNVILLE    CLEAR     45  25  45 SW5       30.11S
COLUMBIA       PTCLDY    36  28  75 CALM      30.08S
SHELBYVILLE    CLEAR     34  28  80 CALM      30.10F
$$

TNZ017-018-042-046-047-210400-
NORTHEAST TENNESSEE

CITY           SKY/WX    TMP DP  RH WIND       PRES   REMARKS
TRI CITIES     CLOUDY    30  25  81 CALM      30.13F
ELIZABETHTON   CLEAR     37  27  65 NE5       30.15S WCI  34
$$

TNZ012-013-036-069-073-074-210400-
CENTRAL EAST TENNESSEE

CITY           SKY/WX    TMP DP  RH WIND       PRES   REMARKS
KNOXVILLE      CLOUDY    38  35  89 CALM      30.13S
OAK RIDGE      CLOUDY    34  31  88 CALM      30.16S
DOWNTOWN KNOXV CLEAR     36  36 100 CALM      30.15S
GATLINBURG     CLEAR     32  32 100 CALM      30.14S
MORRISTOWN     CLEAR     36  25  64 CALM      30.12F
JACKSBORO      CLEAR     30  28  93 CALM      30.17S
$$

TNZ083-085-099-210400-
SOUTHEAST TENNESSEE

CITY           SKY/WX    TMP DP  RH WIND       PRES   REMARKS
CHATTANOOGA    CLOUDY    38  33  82 CALM      30.16F
DAYTON         CLEAR     34  34 100 CALM      30.15S
$$

SKY/WX REPORTED AS FAIR MEANS FEW OR NO CLOUDS BELOW
12 THOUSAND FEET.





USA.gov is the U.S. government's official web portal to all federal, state and local government web resources and services.